Regional Weather Roundup
Issued by NWS

Home | Current Version | Previous Version | Text Only | Print | Product List | Glossary Off
Versions: 1 2 3 4 5 6 7 8 9 10 11 12 13 14 15 16 17 18 19 20 21 22 23 24 25 26 27

000
ASUS45 KSLC 152310
RWRUT

UTAH REGIONAL WEATHER ROUNDUP
NATIONAL WEATHER SERVICE SALT LAKE CITY UT
400 PM MST FRI DEC 15 2017

UTZ001>011-023>025-160000-

NORTHERN UTAH

CITY           SKY/WX    TMP DP  RH WIND       PRES   REMARKS
BRIGHAM CITY   MOCLDY    38  25  60 CALM      30.12F
HILL AFB       MOCLDY    37  25  62 NW5       30.10F WCI  33
LOGAN          MOCLDY    32  22  66 SW5       30.12F WCI  27
OGDEN          MOCLDY    35  25  66 NW5       30.10F WCI  31
SALT LAKE CITY MOCLDY    38  26  62 NW7       30.11F WCI  33
TOOELE VALLEY  MOCLDY    34  28  80 CALM      30.13F
WENDOVER       CLOUDY    30  23  75 CALM      30.12F
HEBER CITY       N/A     39  14  35 CALM      30.06F
WEST JORDAN    PTCLDY    36  26  67 NW7       30.11F WCI  30

$$

UTZ011>015-024>027-160000-

CENTRAL/NORTHEAST UTAH

CITY           SKY/WX    TMP DP  RH WIND       PRES   REMARKS
PROVO AIRPORT  PTCLDY    34  23  64 NW5       30.11F WCI  30
MOAB/CANYONLAN CLEAR     46  13  26 CALM      30.15F
DELTA          CLEAR     43  18  36 CALM      30.08F
PRICE          CLEAR     41  16  36 SE7       30.15F
ROOSEVELT      CLOUDY    37  18  44 CALM      30.15F
VERNAL         CLOUDY    41  17  38 CALM      30.12F

$$

UTZ013>016-019>022-027-160000-

SOUTHERN UTAH

CITY           SKY/WX    TMP DP  RH WIND       PRES   REMARKS
BRYCE CANYON   SUNNY     44   3  18 SE12      30.19S
CEDAR CITY     SUNNY     53   4  13 SW13      30.10F
MILFORD        SUNNY     51  11  20 SW16      30.06F
ST GEORGE      PTCLDY    53  16  23 S6        30.13F
HANKSVILLE     CLEAR     45  14  29 N5        30.20F
BLANDING         N/A     43   7  22 CALM      30.25F

$$

REGIONAL REPORTS     COLORADO/ARIZONA

CITY           SKY/WX    TMP DP  RH WIND       PRES   REMARKS
CRAIG, CO      CLOUDY    37  12  35 E7        30.12F WCI  32
GRAND JUNCTION CLEAR     44  11  26 CALM      30.17F
RIFLE, CO      CLEAR     43   5  20 CALM      30.18F
MONTROSE, CO   CLEAR     42   7  23 CALM      30.20F
CORTEZ, CO     CLEAR     43  10  26 SW10      30.18F
COLORADO CITY    N/A     57   3  11 E3        30.17F
PAGE, AZ       SUNNY     49  14  24 CALM      30.15F
GRAND CANYON   SUNNY     55 -19   4 W5        30.19F
KINGMAN, AZ    SUNNY     63   1   8 SW13      30.12F
FLAGSTAFF, AZ  SUNNY     53  -8   8 S10       30.19F

$$

REGIONAL REPORTS    NEVADA/IDAHO/WYOMING

CITY           SKY/WX    TMP DP  RH WIND       PRES   REMARKS
LAS VEGAS, NV  MOSUNNY   60  16  18 E5        30.09F
ELY, NY        SUNNY     57  -8   7 SE3       30.08F
ELKO, NV       PTSUNNY   36  23  59 SW3       30.07F
POCATELLO, ID  CLOUDY    25  22  88 CALM      30.11S
BURLEY, ID     MOCLDY    36  25  64 CALM      30.06F
FORT BRIDGER,    N/A     44  -2  14 W12G17    30.09F
EVANSTON, WY   CLOUDY    41  10  28 W12       30.07F
ROCK SPRINGS,  CLOUDY    43  -4  14 SW16      30.04F

$$




USA.gov is the U.S. government's official web portal to all federal, state and local government web resources and services.